Regional Weather Roundup
Issued by NWS

Home | Current Version | Previous Version | Graphics & Text | Print | Product List | Glossary On
Versions: 1 2 3 4 5 6 7 8 9 10 11 12 13 14 15 16 17 18 19 20 21 22 23 24 25 26 27 28 29 30 31 32 33 34 35 36 37 38 39 40 41 42 43 44 45 46 47 48 49 50
000
ASUS45 KBOU 240807
RWRCO

WEATHER ROUNDUP FOR COLORADO
NATIONAL WEATHER SERVICE DENVER/BOULDER CO
200 AM MDT THU JUL 24 2014

NOTE: "FAIR" INDICATES FEW OR NO CLOUDS BELOW 12000 FEET WITH NO
SIGNIFICANT WEATHER AND/OR OBSTRUCTIONS TO VISIBILITY.

COZ001>005-013-030-031-240900-
...NORTHWEST COLORADO...

CITY           SKY/WX    TMP DP  RH WIND       PRES   REMARKS
CRAIG          PTCLDY    65  46  50 S5        30.24F
HAYDEN         PTCLDY    66  41  39 E12       30.28F
MEEKER         PTCLDY    65  42  43 E6        30.27F
MOUNT WERNER   NOT AVBL
STEAMBOAT SPGS PTCLDY    66  43  43 CALM      30.32R
WALDEN         PTCLDY    55  39  54 SE3       30.43F
$$

COZ006>008-011-240900-
...WEST CENTRAL VALLEYS...

CITY           SKY/WX    TMP DP  RH WIND       PRES   REMARKS
GRAND JUNCTION MOCLDY    84  42  22 SE15      30.13S
MONTROSE       MOCLDY    77  46  33 S6        30.28R
EAGLE          MOCLDY    64  46  52 E7        30.36F
RIFLE          PTCLDY    74  43  32 W6        30.21F
DELTA          LGT RAIN  78  55  44 N9        30.21F
NUCLA          MOCLDY    79  46  31 E14G25    30.32S
$$

COZ017>023-064>068-240900-
...SOUTHWEST COLORADO...

CITY           SKY/WX    TMP DP  RH WIND       PRES   REMARKS
DURANGO        LGT RAIN  64  53  67 N13       30.43S
CORTEZ         MOCLDY    77  49  37 E14       30.31F
PAGOSA SPRINGS CLOUDY    63  52  67 NW8       30.54S
TELLURIDE      NOT AVBL
WOLF CREEK PAS NOT AVBL
$$

COZ009-010-012-014-032>034-037-058>063-240900-
...CENTRAL COLORADO...

CITY           SKY/WX    TMP DP  RH WIND       PRES   REMARKS
ASPEN          MOCLDY    62  46  55 CALM      30.43R
BUENA VISTA    MOCLDY    55  44  65 W6        30.50F
COPPER MTN     CLOUDY    59  39  47 S28G33    30.77F
BERTHOUD PASS  FAIR      46  34  61 MISG      30.82S
COTTONWOOD PAS MOCLDY    63  37  39 CALM      30.63F
GUNNISON       MOCLDY    63  46  55 N12       30.48S
KREMMLING      PTCLDY    55  43  62 S3        30.41S
LEADVILLE      PTCLDY    46  43  89 CALM      30.63F
MONARCH PASS   CLOUDY    52  41  66 SW16      30.90F
SALIDA         MOCLDY   N/A N/A N/A SE3       30.52F
SUNLIGHT       LGT RAIN  59  43  55 S3        30.66F
WILKERSON PASS MOCLDY    54  37  54 SW13      30.74F
$$

COZ069>075-240900-
...SAN LUIS VALLEY/SANGRE DE CRISTO MOUNTAINS...

CITY           SKY/WX    TMP DP  RH WIND       PRES   REMARKS
ALAMOSA        MOCLDY    56  50  80 SE9       30.46R
LA VETA PASS   PTCLDY    55  41  58 SW25G33   30.64F
SAGUACHE       PTCLDY    57  45  62 N5        30.50F
$$

COZ035-036-038>040-240900-
...NORTHERN COLORADO FRONT RANGE...

CITY           SKY/WX    TMP DP  RH WIND       PRES   REMARKS
DENVER INTL AP PTCLDY    67  47  48 S10       30.17F
DMNS CITY PARK   N/A     76  44  31 S7        30.15F
AURORA         MOCLDY    73  48  40 S10       30.20F
FRONT RANGE AP NOT AVBL
ERIE MUNI ARPT MOCLDY    67  49  52 CALM      30.16R
BOULDER MUN AP MOCLDY    68  46  45 CALM      30.16F
CENTENNIAL     MOCLDY    73  46  38 S8        30.22F
BROOMFIELD     MOCLDY    73  45  35 CALM      30.19F
FORT COLLINS   PTCLDY    63  54  72 CALM      30.18R
LONGMONT       PTCLDY    63  52  67 W8        30.17F
$$

COZ041-046-047-076>085-087-088-240900-
...PIKES PEAK/PALMER DIVIDE AND SOUTHERN FOOTHILLS...

CITY           SKY/WX    TMP DP  RH WIND       PRES   REMARKS
COLO. SPRINGS  CLOUDY    72  57  59 SE7       30.30F
A. F. ACADEMY  CLOUDY    62  49  60 N8        30.32F
ELLICOTT       CLOUDY    68  61  78 S10       30.27F
FALCON         CLOUDY    67  56  66 CALM      30.35F
FORT CARSON    CLOUDY    69  51  53 E2        30.27F
LIMON          MOCLDY    66  62  87 E7        30.23F
MONUMENT HILL  CLOUDY    64  45  48 SW8       30.33F
TRINIDAD       PTCLDY    68  50  52 SW7       30.29F
$$

COZ042>045-048>051-090-091-240900-
...NORTHEAST COLORADO...

CITY           SKY/WX    TMP DP  RH WIND       PRES   REMARKS
GREELEY ARPT   PTCLDY    63  50  63 N3        30.13F
AKRON          PTCLDY    70  63  78 S15G24    30.16F
BURLINGTON     CLEAR     71  66  84 S16       30.19F
WRAY             N/A     71  64  77 E8        30.15F
STERLING       PTCLDY    72  66  83 SW7       30.11F
HOLYOKE        CLEAR     70  64  83 SE10      30.14F
FORT MORGAN    PTCLDY    65  60  82 CALM      30.15F
$$

COZ086-089-092>099-240900-
...SOUTHEAST COLORADO...

CITY           SKY/WX    TMP DP  RH WIND       PRES   REMARKS
PUEBLO         PTCLDY    71  59  65 NE3       30.18F
LA JUNTA       PTCLDY    77  52  41 S10       30.16F
LAMAR          CLEAR     72  58  61 E8        30.13F
SPRINGFIELD      N/A     70  55  59 S9        30.21F
$$



USA.gov is the U.S. government's official web portal to all federal, state and local government web resources and services.